[[{"header":{"parameterUnit":"m.s-1","parameterCategory":1,"la1":30.2991,"la2":30.254,"lo1":-89.0895,"lo2":-89.0444,"dy":0.0017,"dx":0.0017,"nx":28,"ny":28,"refTime":"2025-05-19T03:00:00:Z","depth":0,"parameterNumber":2,"parameterNumberName":"U-component_of_WINDS"},"data":[0,0,0,0,0,0,0,0,0,0,0,0,0,0,0,0,0,0,0,0,0,0,0,0,0,0,0,0,0,0,0,0,0,0,0,0,0,0,0,0,0,0,0,0,0,0,0,0,0,0,0,0,0,0,0,0,0,0,-2.2793,-2.2793,0,-2.279,-2.279,-2.279,-2.276,-2.276,-2.2759,-2.2758,-2.2756,-2.2756,-2.2757,0,0,0,0,0,0,0,0,0,0,0,0,0,-2.2775,-2.2776,-2.2793,-2.2793,-2.2793,-2.279,-2.279,-2.279,-2.276,-2.276,-2.2759,-2.2758,-2.2756,-2.2756,-2.2757,0,0,0,0,0,0,0,0,0,0,0,0,0,-2.2779,-2.2776,-2.2793,-2.2778,-2.2777,-2.279,-2.279,-2.279,-2.2761,-2.276,-2.2758,-2.2757,-2.2755,-2.2756,-2.2757,-2.2785,0,0,-2.276,-2.276,0,0,0,0,0,0,0,0,-2.2778,-2.2779,-2.278,-2.2779,-2.2777,-2.2774,-2.2783,-2.2788,-2.2761,-2.2767,-2.2758,-2.2757,-2.2763,-2.2763,-2.2765,-2.2785,-2.2785,-2.276,-2.2761,-2.2761,-2.2761,0,0,0,0,0,0,0,-2.2778,-2.2779,-2.2792,-2.278,-2.2779,-2.2772,-2.2771,-2.2784,-2.2771,-2.2766,-2.2764,-2.2764,-2.2762,-2.2764,-2.2765,-2.2785,-2.276,-2.2761,-2.2762,-2.2762,-2.2828,-2.2829,0,0,0,0,0,0,-2.278,-2.2779,-2.2792,-2.2792,-2.2775,-2.2773,-2.2772,-2.2777,-2.2771,-2.2769,-2.2765,-2.2763,-2.2763,-2.2764,-2.2765,-2.2796,-2.2761,-2.2762,-2.2763,-2.2827,-2.2828,-2.2829,0,0,0,0,0,0,-2.278,-2.2781,-2.2792,-2.2785,-2.2786,-2.2775,-2.278,-2.2777,-2.2779,-2.277,-2.2768,-2.2769,-2.2762,-2.2763,-2.278,-2.2796,-2.2762,-2.2763,-2.2825,-2.2827,-2.2829,-2.286,0,0,0,0,0,0,-2.2779,-2.2781,-2.2791,-2.2785,-2.2786,-2.2807,-2.2781,-2.2778,-2.2781,-2.2778,-2.2773,-2.2772,-2.2762,-2.2779,-2.2781,-2.2796,-2.2764,-2.2824,-2.2826,-2.2828,-2.2857,-2.2863,-2.2867,0,0,0,0,0,-2.2779,-2.28,-2.2792,-2.2794,-2.2798,-2.2808,-2.2809,-2.2796,-2.2782,-2.2792,-2.2787,-2.2772,-2.2794,-2.2781,-2.2783,-2.2799,-2.2823,-2.2825,-2.2828,-2.2855,-2.2862,-2.2867,0,0,0,0,0,0,-2.2808,-2.2799,-2.279,-2.281,-2.281,-2.2803,-2.2815,-2.2803,-2.2807,-2.2804,-2.2789,-2.2789,-2.2808,-2.2805,-2.2791,-2.2826,-2.2806,-2.2809,-2.2826,-2.2832,-2.2837,-2.2836,-2.2765,0,0,0,0,0,-2.2817,-2.2826,-2.2818,-2.2836,-2.2837,-2.2826,-2.283,-2.2821,-2.282,-2.282,-2.2815,-2.2816,-2.2823,-2.2828,-2.2834,-2.2858,-2.2856,-2.287,-2.2875,-2.2879,-2.2881,-2.2893,-2.2899,-2.2838,-2.2838,-2.2838,0,0,-2.2836,-2.2832,-2.2838,-2.2842,-2.2841,-2.285,-2.2826,-2.2837,-2.2844,-2.2822,-2.2837,-2.2834,-2.2834,-2.2854,-2.2863,-2.2853,-2.2898,-2.2882,-2.2886,-2.2885,-2.2897,-2.2902,-2.2908,-2.284,-2.284,-2.2839,0,0,-2.2873,-2.2872,-2.2886,-2.2886,-2.2885,-2.2878,-2.2882,-2.2877,-2.2874,-2.289,-2.2873,-2.2882,-2.2894,-2.2894,-2.2896,-2.2936,-2.2922,-2.2939,-2.2963,-2.2975,-2.298,-2.2984,-2.2996,-2.3001,-2.2942,-2.2942,-2.2942,0,-2.2896,-2.2908,-2.2896,-2.2907,-2.291,-2.2891,-2.2907,-2.2907,-2.2908,-2.291,-2.2899,-2.2915,-2.2913,-2.2933,-2.2943,-2.2946,-2.295,-2.2938,-2.298,-2.2984,-2.2988,-2.3,-2.3005,-2.2944,-2.2943,-2.2943,-2.2943,0,-2.2936,-2.2945,-2.2958,-2.2959,-2.2963,-2.2977,-2.2967,-2.2973,-2.2964,-2.2958,-2.2974,-2.2973,-2.2978,-2.2982,-2.2974,-2.3001,-2.2995,-2.2983,-2.2962,-2.2995,-2.3006,-2.3011,-2.2946,-2.2946,-2.2945,-2.2945,0,0,-2.2989,-2.2984,-2.2989,-2.2989,-2.2988,-2.2994,-2.3008,-2.3013,-2.3018,-2.302,-2.3031,-2.3043,-2.3031,-2.3033,-2.3025,-2.3036,-2.3067,-2.3022,-2.3022,-2.3029,-2.3096,-2.3104,-2.3109,-2.3059,-2.306,-2.306,-2.3095,0,-2.3024,-2.3045,-2.3035,-2.3058,-2.3066,-2.3049,-2.3061,-2.3062,-2.3058,-2.3065,-2.3061,-2.3069,-2.3054,-2.3055,-2.3065,-2.3061,-2.3079,-2.3058,-2.3067,-2.3068,-2.3065,-2.3115,-2.3123,-2.3156,-2.31,-2.31,-2.3101,0,-2.3066,-2.307,-2.3093,-2.309,-2.3093,-2.3104,-2.3108,-2.3115,-2.3116,-2.3112,-2.3115,-2.3105,-2.3118,-2.31,-2.3118,-2.3104,-2.3108,-2.3106,-2.3107,-2.3106,-2.3085,-2.3113,-2.3166,-2.3171,-2.3108,-2.3107,-2.3107,0,-2.31,-2.3112,-2.3127,-2.3128,-2.3125,-2.3133,-2.3132,-2.3132,-2.3136,-2.314,-2.3143,-2.3149,-2.3152,-2.3157,-2.3149,-2.3136,-2.3168,-2.3149,-2.3164,-2.3164,-2.3169,-2.3168,-2.3222,-2.3176,-2.3176,-2.3175,-2.3175,0,-2.3139,-2.3153,-2.3142,-2.3151,-2.3167,-2.3157,-2.3173,-2.3171,-2.3171,-2.318,-2.3168,-2.3176,-2.3166,-2.3174,-2.3168,-2.3183,-2.3185,-2.3182,-2.318,-2.3182,-2.3182,-2.3182,-2.3179,-2.3177,-2.3176,-2.3176,-2.3176,0,-2.3178,-2.3172,-2.3187,-2.3184,-2.3184,-2.3195,-2.3193,-2.3201,-2.3198,-2.3209,-2.3211,-2.3205,-2.3213,-2.3206,-2.3215,-2.3211,-2.3231,-2.3227,-2.323,-2.3228,-2.3243,-2.3241,-2.3297,-2.3303,-2.3255,-2.3255,-2.3256,0,-2.3202,-2.3213,-2.3211,-2.3216,-2.3216,-2.3224,-2.3228,-2.3219,-2.3224,-2.3226,-2.3235,-2.3242,-2.3247,-2.3262,-2.3259,-2.3265,-2.326,-2.3279,-2.3261,-2.3262,-2.3258,-2.3256,-2.3257,-2.3282,-2.3282,-2.3283,-2.3283,0,-2.3244,-2.324,-2.3246,-2.3252,-2.3257,-2.3261,-2.3263,-2.3268,-2.3259,-2.3266,-2.3274,-2.3278,-2.3288,-2.3295,-2.3301,-2.3301,-2.329,-2.329,-2.3293,-2.3294,-2.3295,-2.3293,-2.3238,-2.3288,-2.3287,-2.3287,-2.3287,-2.3286,-2.3275,-2.3284,-2.3284,-2.3291,-2.3292,-2.3296,-2.3303,-2.3301,-2.3308,-2.3314,-2.3309,-2.3319,-2.3321,-2.3327,-2.3329,-2.3337,-2.3329,-2.3335,-2.3336,-2.3337,-2.3338,-2.3296,-2.3338,-2.3338,-2.3338,-2.3338,-2.3338,0,-2.3315,-2.3315,-2.3322,-2.3326,-2.3332,-2.3323,-2.3326,-2.3331,-2.334,-2.3343,-2.3348,-2.3359,-2.3366,-2.3364,-2.3371,-2.3378,-2.3373,-2.338,-2.3378,-2.3378,-2.3345,-2.3341,-2.3383,-2.3383,-2.3383,-2.3383,-2.3383,-2.3383,-2.3336,-2.335,-2.3347,-2.3362,-2.3361,-2.3371,-2.3373,-2.3376,-2.3378,-2.339,-2.3396,-2.3395,-2.3396,-2.3403,-2.3409,-2.3409,-2.3411,-2.3419,-2.3416,-2.3385,-2.338,-2.3376,-2.3371,-2.342,-2.342,-2.3448,-2.3448,-2.3448]},{"header":{"parameterUnit":"m.s-1","parameterCategory":1,"la1":30.2991,"la2":30.254,"lo1":-89.0895,"lo2":-89.0444,"dy":0.0017,"dx":0.0017,"nx":28,"ny":28,"refTime":"2025-05-19T03:00:00:Z","depth":0,"parameterNumber":3,"parameterNumberName":"V-component_of_WINDS"},"data":[0,0,0,0,0,0,0,0,0,0,0,0,0,0,0,0,0,0,0,0,0,0,0,0,0,0,0,0,0,0,0,0,0,0,0,0,0,0,0,0,0,0,0,0,0,0,0,0,0,0,0,0,0,0,0,0,0,0,4.8635,4.8636,0,4.867,4.867,4.867,4.8693,4.8693,4.8693,4.8694,4.8725,4.8726,4.8727,0,0,0,0,0,0,0,0,0,0,0,0,0,4.8588,4.8589,4.8635,4.8636,4.8636,4.867,4.867,4.867,4.8693,4.8693,4.8693,4.8694,4.8725,4.8726,4.8727,0,0,0,0,0,0,0,0,0,0,0,0,0,4.8614,4.8589,4.8635,4.8651,4.8653,4.8669,4.867,4.8671,4.8693,4.8693,4.8694,4.8694,4.8725,4.8726,4.8727,4.8728,0,0,4.873,4.873,0,0,0,0,0,0,0,0,4.8612,4.8615,4.8649,4.865,4.8652,4.8677,4.8665,4.869,4.8693,4.8678,4.8694,4.8694,4.8709,4.8711,4.8717,4.873,4.8731,4.873,4.8731,4.8731,4.8731,0,0,0,0,0,0,0,4.861,4.8614,4.8649,4.8649,4.8651,4.8657,4.8661,4.867,4.8691,4.8679,4.8681,4.8685,4.871,4.8716,4.8718,4.8732,4.873,4.8731,4.8732,4.8732,4.875,4.875,0,0,0,0,0,0,4.8606,4.8612,4.8648,4.865,4.8633,4.8657,4.8662,4.8669,4.8691,4.8695,4.8685,4.8686,4.8714,4.8717,4.8719,4.8724,4.8731,4.8732,4.8733,4.875,4.875,4.875,0,0,0,0,0,0,4.8605,4.8609,4.8646,4.8632,4.8637,4.8658,4.8666,4.867,4.8676,4.8696,4.8699,4.8687,4.8714,4.8718,4.8727,4.8726,4.8732,4.8733,4.875,4.875,4.875,4.8733,0,0,0,0,0,0,4.8604,4.8609,4.861,4.8632,4.8637,4.8653,4.8666,4.867,4.8678,4.868,4.8699,4.8702,4.8715,4.8725,4.8728,4.8727,4.8734,4.8751,4.875,4.875,4.8734,4.8732,4.8731,0,0,0,0,0,4.8602,4.8602,4.861,4.8614,4.8639,4.8653,4.8657,4.8672,4.8678,4.8679,4.8692,4.8701,4.8725,4.8726,4.8729,4.8729,4.8751,4.875,4.875,4.8734,4.8733,4.8731,0,0,0,0,0,0,4.8577,4.8605,4.8614,4.8621,4.8635,4.8657,4.8659,4.8669,4.8681,4.8682,4.87,4.8704,4.8712,4.8721,4.8721,4.8733,4.8739,4.874,4.8726,4.8725,4.8723,4.8721,4.8735,0,0,0,0,0,4.8573,4.8583,4.8606,4.8611,4.8618,4.8637,4.8644,4.8655,4.867,4.8675,4.8689,4.8702,4.8713,4.8719,4.873,4.8736,4.8741,4.8737,4.8736,4.8734,4.8734,4.874,4.8739,4.8749,4.8749,4.8749,0,0,4.8564,4.858,4.8585,4.8606,4.8618,4.8628,4.8642,4.8651,4.8658,4.8676,4.8686,4.8697,4.8713,4.8721,4.8725,4.8729,4.8733,4.8734,4.8733,4.8734,4.874,4.8739,4.8738,4.8749,4.8749,4.8749,0,0,4.8552,4.8565,4.8571,4.8584,4.8603,4.8617,4.8618,4.864,4.8648,4.8659,4.8673,4.8682,4.87,4.8711,4.8719,4.8716,4.8725,4.8719,4.8711,4.8717,4.8716,4.8715,4.8715,4.8715,4.8719,4.8718,4.8718,0,4.8537,4.8554,4.8572,4.8582,4.8592,4.8611,4.8617,4.8628,4.8649,4.8655,4.8659,4.8684,4.8696,4.8708,4.8707,4.8713,4.8716,4.8716,4.8715,4.8714,4.8714,4.8714,4.8714,4.8718,4.8718,4.8718,4.8718,0,4.8536,4.8547,4.855,4.8572,4.8582,4.859,4.861,4.8617,4.8629,4.8642,4.8654,4.8669,4.8684,4.8688,4.8698,4.8702,4.8704,4.8711,4.8718,4.8712,4.8713,4.8713,4.8716,4.8717,4.8717,4.8717,0,0,4.8507,4.8543,4.8543,4.8555,4.8579,4.8588,4.8597,4.8614,4.8621,4.8635,4.8644,4.866,4.8668,4.8677,4.8689,4.8693,4.8692,4.87,4.8701,4.8699,4.8699,4.8694,4.8694,4.8698,4.8698,4.8698,4.8698,0,4.85,4.8519,4.8538,4.855,4.8562,4.8581,4.859,4.8605,4.8618,4.863,4.8644,4.8656,4.8664,4.867,4.8676,4.869,4.8692,4.8691,4.8707,4.8707,4.8703,4.8694,4.8688,4.8687,4.8698,4.8698,4.8698,0,4.8493,4.851,4.8524,4.8549,4.8555,4.8562,4.858,4.8591,4.861,4.8619,4.8631,4.8644,4.8656,4.8662,4.8678,4.8677,4.8685,4.8693,4.8694,4.8696,4.8702,4.8696,4.8687,4.8687,4.8699,4.8699,4.8699,0,4.8473,4.8498,4.8511,4.852,4.8549,4.8554,4.8567,4.8586,4.8596,4.8611,4.8618,4.8634,4.8643,4.8656,4.8673,4.8676,4.8688,4.8695,4.8697,4.8696,4.8698,4.8698,4.869,4.8702,4.8702,4.8702,4.8702,0,4.8463,4.8471,4.8502,4.851,4.852,4.8542,4.8551,4.8565,4.8582,4.8593,4.861,4.862,4.8642,4.8655,4.8668,4.8681,4.8684,4.8692,4.8696,4.8691,4.869,4.8696,4.8697,4.8702,4.8702,4.8702,4.8702,0,4.8441,4.8463,4.8478,4.8506,4.8513,4.852,4.8543,4.8552,4.8567,4.8581,4.8585,4.8608,4.8624,4.8643,4.8664,4.8674,4.8685,4.869,4.8679,4.8682,4.8682,4.8682,4.8679,4.868,4.869,4.869,4.869,0,4.8434,4.8441,4.8471,4.848,4.8493,4.8507,4.8518,4.854,4.8551,4.8575,4.858,4.8598,4.8613,4.8638,4.8656,4.8673,4.8679,4.8677,4.8681,4.8677,4.868,4.868,4.8682,4.8675,4.8675,4.8675,4.8675,0,4.8418,4.8429,4.8445,4.8466,4.8479,4.8496,4.8513,4.8519,4.8545,4.8556,4.8574,4.8586,4.861,4.8627,4.8647,4.8659,4.8672,4.8673,4.8675,4.867,4.8664,4.8669,4.8677,4.8673,4.8673,4.8673,4.8673,4.8674,4.8404,4.8413,4.8436,4.8454,4.847,4.8486,4.8496,4.8514,4.853,4.8552,4.8564,4.8581,4.8602,4.863,4.8642,4.8657,4.8661,4.8662,4.8663,4.8663,4.8662,4.8662,4.866,4.866,4.866,4.866,4.866,0,4.8391,4.8408,4.8424,4.8449,4.8464,4.8476,4.8496,4.8507,4.8523,4.8542,4.8558,4.8579,4.8597,4.8618,4.8638,4.8645,4.8651,4.8649,4.8649,4.8652,4.8657,4.8654,4.8644,4.8644,4.8644,4.8644,4.8644,4.8644,4.8386,4.8401,4.8415,4.8439,4.8456,4.8475,4.8486,4.8501,4.8517,4.854,4.8556,4.8571,4.8591,4.8612,4.863,4.8635,4.8642,4.8639,4.8646,4.865,4.8651,4.8653,4.865,4.864,4.864,4.864,4.864,4.864]}]]